ARG2549 SVMI-SVMC

Flight info

Callsign ARG2549
Flight time 0h 55m
Altitude 24000
Route MARES1 MARES A315 ATONO G427 PBL UW52 MAU A552 MAR
Aircraft B737/M-SDE2E3FGHIRWXY/LB1

Departure

Time 2026-04-27 22:27
Airport Maiquetía Simón Bolívar International Airport (SVMI)

Arrival

Time 2026-04-27 23:23
Airport La Chinita International Airport (SVMC)
Time Latitude Longitude Altitude Speed Heading
2026-04-27 21:54 10.59829 -67.00336 225 ft 0 kts 178°
2026-04-27 22:21 10.59840 -67.00337 225 ft 4 kts 178°
2026-04-27 22:21 10.59868 -67.00337 226 ft 4 kts 178°
2026-04-27 22:21 10.59894 -67.00337 225 ft 4 kts 192°
2026-04-27 22:21 10.59918 -67.00326 224 ft 4 kts 228°
2026-04-27 22:22 10.59926 -67.00310 224 ft 1 kts 269°
2026-04-27 22:22 10.59926 -67.00307 224 ft 0 kts 269°
2026-04-27 22:23 10.59925 -67.00320 226 ft 8 kts 269°
2026-04-27 22:24 10.59924 -67.00386 225 ft 11 kts 269°
2026-04-27 22:24 10.59922 -67.00470 227 ft 13 kts 269°
2026-04-27 22:24 10.59920 -67.00570 229 ft 15 kts 269°
2026-04-27 22:24 10.59916 -67.00685 231 ft 17 kts 268°
2026-04-27 22:25 10.59911 -67.00814 233 ft 19 kts 268°
2026-04-27 22:25 10.59906 -67.00953 235 ft 21 kts 268°
2026-04-27 22:25 10.59901 -67.01106 238 ft 22 kts 268°
2026-04-27 22:25 10.59958 -67.01238 240 ft 23 kts 346°
2026-04-27 22:26 10.60124 -67.01248 240 ft 25 kts 357°
2026-04-27 22:26 10.60314 -67.01255 239 ft 27 kts
2026-04-27 22:26 10.60395 -67.01157 239 ft 22 kts 88°
2026-04-27 22:26 10.60406 -67.00735 232 ft 100 kts 89°
2026-04-27 22:27 10.60422 -66.99785 238 ft 164 kts 89°
2026-04-27 22:27 10.60434 -66.98593 938 ft 172 kts 89°
2026-04-27 22:27 10.60524 -66.97391 1935 ft 165 kts 69°
2026-04-27 22:27 10.61272 -66.96510 2732 ft 175 kts 34°
2026-04-27 22:28 10.62511 -66.96007 3099 ft 211 kts 11°
2026-04-27 22:28 10.64080 -66.96169 3395 ft 247 kts 340°
2026-04-27 22:28 10.65476 -66.97344 3827 ft 277 kts 302°
2026-04-27 22:28 10.66130 -66.99225 3980 ft 288 kts 281°
2026-04-27 22:29 10.66521 -67.01217 3995 ft 287 kts 282°
2026-04-27 22:29 10.66907 -67.03172 4066 ft 286 kts 282°
2026-04-27 22:29 10.67301 -67.05174 4573 ft 290 kts 281°
2026-04-27 22:29 10.67754 -67.07166 5642 ft 290 kts 291°
2026-04-27 22:30 10.68816 -67.08916 6557 ft 295 kts 309°
2026-04-27 22:30 10.70139 -67.10544 7461 ft 300 kts 311°
2026-04-27 22:30 10.71499 -67.12183 8347 ft 305 kts 311°
2026-04-27 22:30 10.72859 -67.13828 9200 ft 310 kts 311°
2026-04-27 22:31 10.74247 -67.15523 10095 ft 313 kts 310°
2026-04-27 22:31 10.75640 -67.17238 10976 ft 316 kts 309°
2026-04-27 22:31 10.77070 -67.19007 11160 ft 331 kts 309°
2026-04-27 22:31 10.78518 -67.20798 11260 ft 323 kts 309°
2026-04-27 22:32 10.79921 -67.22582 11715 ft 325 kts 307°
2026-04-27 22:32 10.81291 -67.24422 12631 ft 327 kts 306°
2026-04-27 22:32 10.82693 -67.26333 12983 ft 349 kts 305°
2026-04-27 22:32 10.84196 -67.28384 13173 ft 373 kts 306°
2026-04-27 22:33 10.85788 -67.30548 13597 ft 387 kts 306°
2026-04-27 22:33 10.87415 -67.32751 14364 ft 389 kts 306°
2026-04-27 22:33 10.89026 -67.34926 15168 ft 390 kts 306°
2026-04-27 22:33 10.90665 -67.37139 15904 ft 393 kts 305°
2026-04-27 22:34 10.92315 -67.39365 16636 ft 396 kts 305°
2026-04-27 22:34 10.93979 -67.41612 17334 ft 398 kts 305°
2026-04-27 22:34 10.95590 -67.43908 17996 ft 399 kts 297°
2026-04-27 22:34 10.96521 -67.46549 18627 ft 397 kts 277°
2026-04-27 22:35 10.96535 -67.49343 19212 ft 397 kts 258°
2026-04-27 22:35 10.96070 -67.51139 19565 ft 398 kts 248°
2026-04-27 22:35 10.94126 -67.54336 20254 ft 400 kts 229°
2026-04-27 22:35 10.92921 -67.55770 20601 ft 403 kts 228°
2026-04-27 22:36 10.91053 -67.57909 21083 ft 407 kts 227°
2026-04-27 22:36 10.89151 -67.60071 21563 ft 411 kts 227°
2026-04-27 22:36 10.87252 -67.62253 22035 ft 414 kts 227°
2026-04-27 22:36 10.85351 -67.64464 22482 ft 417 kts 227°
2026-04-27 22:37 10.83442 -67.66703 22892 ft 421 kts 227°
2026-04-27 22:37 10.81515 -67.68972 23256 ft 425 kts 227°
2026-04-27 22:37 10.79575 -67.71256 23609 ft 429 kts 227°
2026-04-27 22:37 10.77617 -67.73559 23929 ft 432 kts 227°
2026-04-27 22:38 10.75629 -67.75893 23925 ft 440 kts 227°
2026-04-27 22:38 10.73607 -67.78262 23940 ft 447 kts 227°
2026-04-27 22:38 10.71556 -67.80667 23949 ft 452 kts 227°
2026-04-27 22:38 10.69483 -67.83097 23947 ft 457 kts 227°
2026-04-27 22:39 10.67388 -67.85553 23946 ft 461 kts 227°
2026-04-27 22:39 10.65311 -67.87988 23932 ft 460 kts 227°
2026-04-27 22:39 10.63212 -67.90450 23931 ft 460 kts 227°
2026-04-27 22:39 10.61119 -67.92904 23929 ft 459 kts 227°
2026-04-27 22:40 10.59027 -67.95355 23936 ft 459 kts 227°
2026-04-27 22:40 10.56934 -67.97808 23941 ft 459 kts 227°
2026-04-27 22:40 10.54835 -68.00266 23948 ft 460 kts 227°
2026-04-27 22:40 10.52741 -68.02718 23946 ft 460 kts 227°
2026-04-27 22:41 10.50724 -68.05254 23933 ft 463 kts 235°
2026-04-27 22:41 10.49325 -68.08205 23955 ft 467 kts 250°
2026-04-27 22:41 10.48633 -68.11444 23935 ft 472 kts 263°
2026-04-27 22:41 10.48694 -68.14789 23965 ft 474 kts 272°
2026-04-27 22:42 10.48957 -68.18125 23949 ft 474 kts 273°
2026-04-27 22:42 10.49245 -68.21463 23942 ft 475 kts 273°
2026-04-27 22:42 10.49528 -68.24805 23939 ft 474 kts 273°
2026-04-27 22:42 10.49790 -68.28107 23943 ft 474 kts 272°
2026-04-27 22:43 10.50039 -68.31451 23940 ft 474 kts 272°
2026-04-27 22:43 10.50276 -68.34791 23944 ft 473 kts 272°
2026-04-27 22:43 10.50506 -68.38123 23942 ft 472 kts 272°
2026-04-27 22:43 10.50733 -68.41452 23953 ft 472 kts 272°
2026-04-27 22:44 10.50959 -68.44774 23956 ft 472 kts 272°
2026-04-27 22:44 10.51186 -68.48099 23952 ft 471 kts 272°
2026-04-27 22:44 10.51412 -68.51426 23955 ft 471 kts 272°
2026-04-27 22:44 10.51639 -68.54748 23958 ft 471 kts 272°
2026-04-27 22:45 10.51864 -68.58065 23959 ft 471 kts 272°
2026-04-27 22:45 10.52090 -68.61376 23960 ft 470 kts 272°
2026-04-27 22:45 10.52315 -68.64692 23959 ft 470 kts 272°
2026-04-27 22:45 10.52538 -68.67972 23947 ft 470 kts 272°
2026-04-27 22:46 10.52762 -68.71281 23962 ft 469 kts 272°
2026-04-27 22:46 10.52986 -68.74587 23966 ft 469 kts 272°
2026-04-27 22:46 10.53209 -68.77897 23963 ft 469 kts 272°
2026-04-27 22:46 10.53433 -68.81209 23963 ft 469 kts 272°
2026-04-27 22:47 10.53656 -68.84515 23965 ft 469 kts 272°
2026-04-27 22:47 10.53878 -68.87822 23965 ft 469 kts 272°
2026-04-27 22:47 10.54100 -68.91128 23965 ft 469 kts 272°
2026-04-27 22:47 10.54322 -68.94434 23966 ft 468 kts 272°
2026-04-27 22:48 10.54552 -68.97734 23973 ft 468 kts 273°
2026-04-27 22:48 10.54807 -69.01034 23970 ft 468 kts 273°
2026-04-27 22:48 10.55074 -69.04323 23968 ft 467 kts 273°
2026-04-27 22:48 10.55372 -69.07618 23972 ft 468 kts 274°
2026-04-27 22:49 10.55735 -69.10901 23968 ft 468 kts 275°
2026-04-27 22:49 10.56127 -69.14180 23977 ft 467 kts 275°
2026-04-27 22:49 10.56527 -69.17455 23974 ft 467 kts 276°
2026-04-27 22:49 10.56924 -69.20731 23972 ft 467 kts 275°
2026-04-27 22:50 10.57309 -69.23969 23972 ft 467 kts 275°
2026-04-27 22:50 10.57693 -69.27244 23973 ft 467 kts 275°
2026-04-27 22:50 10.58072 -69.30519 23972 ft 467 kts 275°
2026-04-27 22:50 10.58448 -69.33798 23971 ft 467 kts 275°
2026-04-27 22:51 10.58822 -69.37078 23974 ft 466 kts 275°
2026-04-27 22:51 10.59195 -69.40350 23976 ft 466 kts 275°
2026-04-27 22:51 10.59568 -69.43632 23974 ft 467 kts 275°
2026-04-27 22:51 10.59941 -69.46912 23977 ft 466 kts 275°
2026-04-27 22:52 10.60314 -69.50190 23967 ft 466 kts 275°
2026-04-27 22:52 10.60687 -69.53467 23972 ft 466 kts 275°
2026-04-27 22:52 10.61059 -69.56745 23968 ft 466 kts 275°
2026-04-27 22:52 10.61425 -69.59970 23969 ft 465 kts 275°
2026-04-27 22:53 10.61795 -69.63234 23968 ft 465 kts 275°
2026-04-27 22:53 10.62165 -69.66506 23974 ft 466 kts 275°
2026-04-27 22:53 10.62537 -69.69786 23961 ft 466 kts 275°
2026-04-27 22:53 10.62907 -69.73060 23969 ft 466 kts 275°
2026-04-27 22:54 10.63278 -69.76332 23954 ft 466 kts 275°
2026-04-27 22:54 10.63648 -69.79601 23965 ft 465 kts 275°
2026-04-27 22:54 10.64017 -69.82875 23953 ft 465 kts 275°
2026-04-27 22:54 10.64384 -69.86137 23954 ft 464 kts 275°
2026-04-27 22:55 10.64746 -69.89352 23600 ft 452 kts 275°
2026-04-27 22:55 10.65102 -69.92512 22770 ft 449 kts 275°
2026-04-27 22:55 10.65455 -69.95654 21843 ft 446 kts 275°
2026-04-27 22:55 10.65804 -69.98773 20962 ft 442 kts 275°
2026-04-27 22:56 10.66147 -70.01825 20159 ft 436 kts 275°
2026-04-27 22:56 10.66489 -70.04870 19359 ft 430 kts 275°
2026-04-27 22:56 10.66826 -70.07873 18567 ft 424 kts 275°
2026-04-27 22:56 10.67157 -70.10834 17783 ft 419 kts 275°
2026-04-27 22:57 10.67484 -70.13762 16985 ft 414 kts 275°
2026-04-27 22:57 10.67807 -70.16658 16165 ft 411 kts 275°
2026-04-27 22:57 10.68128 -70.19533 15344 ft 408 kts 275°
2026-04-27 22:57 10.68446 -70.22388 14534 ft 404 kts 275°
2026-04-27 22:58 10.68760 -70.25209 13719 ft 400 kts 275°
2026-04-27 22:58 10.69072 -70.28011 12934 ft 397 kts 275°
2026-04-27 22:58 10.69381 -70.30788 12182 ft 394 kts 275°
2026-04-27 22:58 10.69688 -70.33544 11386 ft 391 kts 275°
2026-04-27 22:59 10.69992 -70.36286 10576 ft 389 kts 276°
2026-04-27 22:59 10.70295 -70.39026 10285 ft 395 kts 276°
2026-04-27 22:59 10.70602 -70.41808 10161 ft 395 kts 276°
2026-04-27 22:59 10.70906 -70.44550 10026 ft 393 kts 276°
2026-04-27 23:00 10.71513 -70.50037 9944 ft 390 kts 276°
2026-04-27 23:00 10.71818 -70.52804 9948 ft 390 kts 276°
2026-04-27 23:00 10.72120 -70.55541 9944 ft 390 kts 276°
2026-04-27 23:01 10.72419 -70.58252 9937 ft 390 kts 276°
2026-04-27 23:01 10.72722 -70.60994 9940 ft 390 kts 276°
2026-04-27 23:01 10.73024 -70.63729 9937 ft 390 kts 276°
2026-04-27 23:01 10.73326 -70.66471 9928 ft 390 kts 276°
2026-04-27 23:02 10.73628 -70.69219 9920 ft 390 kts 276°
2026-04-27 23:02 10.73929 -70.71957 9931 ft 389 kts 276°
2026-04-27 23:02 10.74225 -70.74655 9915 ft 377 kts 276°
2026-04-27 23:02 10.74509 -70.77246 9843 ft 360 kts 276°
2026-04-27 23:03 10.74786 -70.79774 9007 ft 362 kts 276°
2026-04-27 23:03 10.75067 -70.82350 8028 ft 369 kts 276°
2026-04-27 23:03 10.75353 -70.84957 7223 ft 370 kts 276°
2026-04-27 23:03 10.75636 -70.87543 6633 ft 363 kts 276°
2026-04-27 23:04 10.75910 -70.90053 5981 ft 359 kts 276°
2026-04-27 23:04 10.76184 -70.92561 5306 ft 356 kts 276°
2026-04-27 23:04 10.76456 -70.95059 4617 ft 353 kts 276°
2026-04-27 23:04 10.76726 -70.97528 4197 ft 351 kts 276°
2026-04-27 23:05 10.76994 -71.00000 4065 ft 351 kts 276°
2026-04-27 23:05 10.77264 -71.02477 3955 ft 350 kts 276°
2026-04-27 23:05 10.77533 -71.04941 3921 ft 350 kts 276°
2026-04-27 23:05 10.77797 -71.07366 3917 ft 349 kts 276°
2026-04-27 23:06 10.78064 -71.09829 3906 ft 350 kts 276°
2026-04-27 23:06 10.78330 -71.12282 3908 ft 349 kts 276°
2026-04-27 23:06 10.78597 -71.14745 3907 ft 349 kts 276°
2026-04-27 23:06 10.78864 -71.17199 3909 ft 349 kts 276°
2026-04-27 23:07 10.79129 -71.19649 3907 ft 349 kts 276°
2026-04-27 23:07 10.79394 -71.22101 3906 ft 348 kts 276°
2026-04-27 23:07 10.79416 -71.24561 3900 ft 349 kts 263°
2026-04-27 23:07 10.78884 -71.26974 3902 ft 348 kts 250°
2026-04-27 23:08 10.77911 -71.29228 3904 ft 348 kts 244°
2026-04-27 23:08 10.76873 -71.31419 3898 ft 348 kts 244°
2026-04-27 23:08 10.75814 -71.33633 3895 ft 348 kts 243°
2026-04-27 23:08 10.74758 -71.35853 3897 ft 348 kts 244°
2026-04-27 23:09 10.73709 -71.38076 3901 ft 348 kts 244°
2026-04-27 23:09 10.72668 -71.40300 3909 ft 348 kts 244°
2026-04-27 23:09 10.71630 -71.42526 3912 ft 348 kts 244°
2026-04-27 23:09 10.70605 -71.44725 3920 ft 348 kts 244°
2026-04-27 23:10 10.69569 -71.46949 3922 ft 348 kts 244°
2026-04-27 23:10 10.68532 -71.49175 3914 ft 348 kts 244°
2026-04-27 23:10 10.67496 -71.51398 3923 ft 348 kts 244°
2026-04-27 23:10 10.66456 -71.53621 3919 ft 348 kts 244°
2026-04-27 23:11 10.65420 -71.55840 3915 ft 347 kts 244°
2026-04-27 23:11 10.64388 -71.58058 3918 ft 347 kts 244°
2026-04-27 23:11 10.63360 -71.60272 3920 ft 346 kts 244°
2026-04-27 23:11 10.62334 -71.62486 3926 ft 346 kts 244°
2026-04-27 23:12 10.61306 -71.64700 3923 ft 347 kts 244°
2026-04-27 23:12 10.60278 -71.66919 3920 ft 346 kts 245°
2026-04-27 23:12 10.59268 -71.69111 3917 ft 346 kts 245°
2026-04-27 23:12 10.58246 -71.71327 3917 ft 346 kts 245°
2026-04-27 23:13 10.57223 -71.73539 3916 ft 345 kts 245°
2026-04-27 23:13 10.56205 -71.75748 3922 ft 343 kts 245°
2026-04-27 23:13 10.55228 -71.77879 3926 ft 315 kts 245°
2026-04-27 23:13 10.54358 -71.79767 3903 ft 276 kts 245°
2026-04-27 23:14 10.53591 -71.81425 3900 ft 242 kts 243°
2026-04-27 23:14 10.52574 -71.82669 3559 ft 226 kts 216°
2026-04-27 23:14 10.51343 -71.83498 3451 ft 193 kts 211°
2026-04-27 23:14 10.50318 -71.84157 3371 ft 163 kts 212°
2026-04-27 23:15 10.49441 -71.84725 3175 ft 140 kts 211°
2026-04-27 23:15 10.48566 -71.85294 2386 ft 156 kts 212°
2026-04-27 23:15 10.47639 -71.85849 1860 ft 148 kts 205°
2026-04-27 23:15 10.46728 -71.86199 1688 ft 135 kts 195°
2026-04-27 23:16 10.45814 -71.86363 1569 ft 135 kts 185°
2026-04-27 23:16 10.44885 -71.86339 1519 ft 133 kts 173°
2026-04-27 23:16 10.43990 -71.86113 1519 ft 133 kts 160°
2026-04-27 23:16 10.43158 -71.85692 1519 ft 135 kts 148°
2026-04-27 23:17 10.42431 -71.85092 1514 ft 135 kts 135°
2026-04-27 23:17 10.41850 -71.84344 1505 ft 135 kts 123°
2026-04-27 23:17 10.41445 -71.83488 1510 ft 134 kts 110°
2026-04-27 23:17 10.41235 -71.82568 1518 ft 134 kts 97°
2026-04-27 23:18 10.41223 -71.81625 1528 ft 134 kts 85°
2026-04-27 23:18 10.41411 -71.80695 1535 ft 135 kts 72°
2026-04-27 23:18 10.41795 -71.79820 1534 ft 137 kts 59°
2026-04-27 23:18 10.42366 -71.79059 1531 ft 138 kts 45°
2026-04-27 23:19 10.43186 -71.78548 1533 ft 138 kts 25°
2026-04-27 23:19 10.44032 -71.78070 1515 ft 139 kts 29°
2026-04-27 23:19 10.44888 -71.77613 1511 ft 139 kts 26°
2026-04-27 23:19 10.45766 -71.77206 1507 ft 138 kts 24°
2026-04-27 23:20 10.46645 -71.76821 1502 ft 137 kts 23°
2026-04-27 23:20 10.47517 -71.76446 1501 ft 135 kts 23°
2026-04-27 23:20 10.48383 -71.76074 1499 ft 135 kts 22°
2026-04-27 23:20 10.49265 -71.75697 1358 ft 139 kts 23°
2026-04-27 23:21 10.50150 -71.75318 1184 ft 137 kts 23°
2026-04-27 23:21 10.51016 -71.74946 1003 ft 134 kts 23°
2026-04-27 23:21 10.51876 -71.74578 834 ft 134 kts 23°
2026-04-27 23:21 10.52742 -71.74205 620 ft 137 kts 23°
2026-04-27 23:22 10.53610 -71.73819 434 ft 136 kts 23°
2026-04-27 23:22 10.54494 -71.73452 286 ft 138 kts 22°
2026-04-27 23:22 10.55078 -71.73204 239 ft 134 kts 23°
2026-04-27 23:22 10.56110 -71.72767 238 ft 98 kts 21°
2026-04-27 23:23 10.56402 -71.72618 241 ft 29 kts 45°
2026-04-27 23:23 10.56524 -71.72464 238 ft 27 kts 52°
2026-04-27 23:23 10.56575 -71.72374 238 ft 19 kts 76°
2026-04-27 23:23 10.56556 -71.72264 237 ft 9 kts 85°
2026-04-27 23:24 10.56579 -71.72234 237 ft 8 kts 19°
2026-04-27 23:24 10.56631 -71.72256 237 ft 8 kts 324°
2026-04-27 23:24 10.56659 -71.72303 238 ft 8 kts 268°
2026-04-27 23:24 10.56621 -71.72346 238 ft 9 kts 211°
2026-04-27 23:25 10.56556 -71.72377 238 ft 12 kts 202°
2026-04-27 23:25 10.56468 -71.72413 237 ft 15 kts 202°
2026-04-27 23:25 10.56359 -71.72459 237 ft 18 kts 202°
2026-04-27 23:25 10.56234 -71.72513 235 ft 21 kts 203°
2026-04-27 23:26 10.56093 -71.72573 230 ft 23 kts 200°
2026-04-27 23:26 10.55988 -71.72545 230 ft 16 kts 120°
2026-04-27 23:26 10.55935 -71.72451 230 ft 15 kts 142°
2026-04-27 23:26 10.55829 -71.72455 229 ft 17 kts 193°
2026-04-27 23:27 10.55753 -71.72461 229 ft 9 kts 168°
2026-04-27 23:27 10.55715 -71.72448 229 ft 5 kts 137°
2026-04-27 23:27 10.55708 -71.72439 229 ft 1 kts 131°
2026-04-27 23:27 10.55705 -71.72436 229 ft 0 kts 129°